MSR1015 HEAT-OJAI

Flight info

Callsign MSR1015
Flight time N/A
Altitude 36000
Route AST V608 HGD R650 NOVPA M690 ULINA M319 LOSIL
Aircraft B77W/H-SDE1E2E3FGHIJ2J3J4J5M1RWXY/LB1D1

Departure

Time 2026-04-24 20:16
Airport Asyut International Airport (HEAT)

Arrival

Time N/A
Airport Queen Alia International Airport (OJAI)
Time Latitude Longitude Altitude Speed Heading
2026-04-24 20:02 27.05190 31.01227 764 ft 0 kts 40°
2026-04-24 20:07 27.05180 31.01217 764 ft 3 kts 64°
2026-04-24 20:07 27.05177 31.01199 764 ft 3 kts 114°
2026-04-24 20:08 27.05188 31.01181 764 ft 3 kts 129°
2026-04-24 20:08 27.05197 31.01168 764 ft 1 kts 129°
2026-04-24 20:08 27.05199 31.01165 764 ft 0 kts 129°
2026-04-24 20:12 27.03798 31.02340 788 ft 0 kts 310°
2026-04-24 20:15 27.03803 31.02333 788 ft 12 kts 310°
2026-04-24 20:15 27.04048 31.02006 782 ft 97 kts 310°
2026-04-24 20:16 27.04648 31.01205 771 ft 168 kts 310°
2026-04-24 20:16 27.05521 31.00063 930 ft 203 kts 311°
2026-04-24 20:16 27.06404 30.98920 1873 ft 192 kts 311°
2026-04-24 20:16 27.07248 30.97744 2512 ft 200 kts 308°
2026-04-24 20:17 27.08131 30.96425 2766 ft 223 kts 306°
2026-04-24 20:17 27.10906 30.94679 3475 ft 254 kts 359°
2026-04-24 20:17 27.12697 30.94922 4039 ft 264 kts
2026-04-24 20:18 27.13886 30.95254 4464 ft 268 kts 21°
2026-04-24 20:18 27.15725 30.97161 5359 ft 278 kts 57°
2026-04-24 20:18 27.16666 30.99077 6118 ft 281 kts 62°
2026-04-24 20:18 27.17575 31.01012 6764 ft 283 kts 61°
2026-04-24 20:19 27.18541 31.02963 6936 ft 288 kts 59°
2026-04-24 20:19 27.19559 31.04902 6941 ft 287 kts 58°
2026-04-24 20:19 27.20606 31.06811 6935 ft 287 kts 58°
2026-04-24 20:19 27.21667 31.08709 6941 ft 287 kts 57°
2026-04-24 20:20 27.22725 31.10606 6939 ft 287 kts 57°
2026-04-24 20:20 27.23699 31.12537 6910 ft 283 kts 71°
2026-04-24 20:20 27.23922 31.14709 6979 ft 282 kts 98°
2026-04-24 20:20 27.23392 31.16824 7511 ft 284 kts 110°
2026-04-24 20:21 27.22708 31.18942 8120 ft 292 kts 110°
2026-04-24 20:21 27.22006 31.21092 8847 ft 294 kts 110°
2026-04-24 20:21 27.21297 31.23258 9570 ft 295 kts 111°
2026-04-24 20:21 27.20588 31.25429 9942 ft 299 kts 111°
2026-04-24 20:22 27.19865 31.27646 9921 ft 303 kts 111°
2026-04-24 20:22 27.19146 31.29864 9929 ft 301 kts 111°
2026-04-24 20:22 27.18429 31.32073 9925 ft 298 kts 111°
2026-04-24 20:22 27.17724 31.34252 9926 ft 297 kts 111°
2026-04-24 20:23 27.17024 31.36415 9918 ft 298 kts 111°
2026-04-24 20:23 27.16316 31.38603 9924 ft 298 kts 111°
2026-04-24 20:23 27.15607 31.40796 9916 ft 298 kts 111°
2026-04-24 20:23 27.14898 31.42980 9916 ft 298 kts 111°
2026-04-24 20:24 27.14429 31.44425 9918 ft 298 kts 111°
2026-04-24 20:24 27.13486 31.47360 9900 ft 297 kts 108°
2026-04-24 20:24 27.13288 31.49643 9934 ft 296 kts 82°
2026-04-24 20:24 27.13742 31.51951 10148 ft 312 kts 77°
2026-04-24 20:25 27.14278 31.54407 10324 ft 335 kts 77°
2026-04-24 20:25 27.14847 31.56998 10501 ft 358 kts 77°
2026-04-24 20:25 27.15459 31.59794 10709 ft 379 kts 77°
2026-04-24 20:25 27.16096 31.62719 11232 ft 390 kts 77°
2026-04-24 20:26 27.16742 31.65712 11921 ft 398 kts 77°
2026-04-24 20:26 27.17393 31.68745 12788 ft 401 kts 77°
2026-04-24 20:26 27.18048 31.71804 13611 ft 406 kts 78°
2026-04-24 20:26 27.18713 31.74921 14321 ft 413 kts 78°
2026-04-24 20:27 27.19385 31.78078 15057 ft 420 kts 78°
2026-04-24 20:27 27.20067 31.81285 15835 ft 425 kts 78°
2026-04-24 20:27 27.20758 31.84541 16623 ft 430 kts 78°
2026-04-24 20:27 27.21453 31.87833 17347 ft 436 kts 78°
2026-04-24 20:28 27.22157 31.91164 17995 ft 443 kts 78°
2026-04-24 20:28 27.22873 31.94548 18680 ft 448 kts 78°
2026-04-24 20:28 27.23590 31.97940 19377 ft 453 kts 78°
2026-04-24 20:28 27.24323 32.01418 20040 ft 458 kts 78°
2026-04-24 20:29 27.24810 32.03726 20452 ft 462 kts 78°
2026-04-24 20:29 27.25808 32.08470 21300 ft 468 kts 78°
2026-04-24 20:29 27.26559 32.12049 21914 ft 473 kts 78°
2026-04-24 20:29 27.27315 32.15655 22508 ft 477 kts 78°
2026-04-24 20:30 27.28079 32.19299 23072 ft 481 kts 78°
2026-04-24 20:30 27.28849 32.22982 23622 ft 486 kts 78°
2026-04-24 20:30 27.29451 32.26738 24110 ft 490 kts 85°
2026-04-24 20:30 27.29713 32.30564 24624 ft 492 kts 90°
2026-04-24 20:31 27.29654 32.34422 25172 ft 493 kts 97°
2026-04-24 20:31 27.29361 32.38269 25704 ft 495 kts 97°
2026-04-24 20:31 27.29035 32.42133 26215 ft 498 kts 98°
2026-04-24 20:31 27.28701 32.46021 26684 ft 502 kts 98°
2026-04-24 20:32 27.28372 32.49948 27100 ft 506 kts 98°
2026-04-24 20:32 27.28051 32.53893 27533 ft 509 kts 97°
2026-04-24 20:32 27.27735 32.57877 27983 ft 511 kts 97°
2026-04-24 20:32 27.27424 32.61872 28399 ft 514 kts 97°
2026-04-24 20:33 27.27118 32.65827 28764 ft 517 kts 97°
2026-04-24 20:33 27.26799 32.69923 29105 ft 520 kts 97°
2026-04-24 20:33 27.26486 32.73925 29497 ft 521 kts 97°
2026-04-24 20:33 27.26167 32.77971 30019 ft 519 kts 97°
2026-04-24 20:34 27.25850 32.81993 30554 ft 517 kts 97°
2026-04-24 20:34 27.25531 32.86028 30977 ft 517 kts 97°
2026-04-24 20:34 27.25208 32.90068 31318 ft 519 kts 97°
2026-04-24 20:34 27.24884 32.94104 31661 ft 520 kts 97°
2026-04-24 20:35 27.24558 32.98147 32018 ft 520 kts 97°
2026-04-24 20:35 27.24230 33.02195 32393 ft 520 kts 97°
2026-04-24 20:35 27.23901 33.06262 32708 ft 521 kts 97°
2026-04-24 20:35 27.23572 33.10318 33021 ft 522 kts 97°
2026-04-24 20:36 27.23241 33.14385 33353 ft 522 kts 97°
2026-04-24 20:36 27.22909 33.18448 33678 ft 523 kts 97°
2026-04-24 20:36 27.22575 33.22518 34021 ft 523 kts 97°
2026-04-24 20:36 27.22240 33.26583 34309 ft 523 kts 97°
2026-04-24 20:37 27.21906 33.30614 34513 ft 525 kts 97°
2026-04-24 20:37 27.21566 33.34702 34746 ft 527 kts 97°
2026-04-24 20:37 27.21225 33.38809 34940 ft 529 kts 98°
2026-04-24 20:37 27.20885 33.42923 35186 ft 529 kts 98°
2026-04-24 20:38 27.20545 33.47043 35439 ft 530 kts 98°
2026-04-24 20:38 27.20201 33.51169 35659 ft 531 kts 98°
2026-04-24 20:38 27.19855 33.55303 35831 ft 533 kts 98°
2026-04-24 20:38 27.19506 33.59469 35887 ft 536 kts 98°
2026-04-24 20:39 27.18804 33.67815 35923 ft 535 kts 98°
2026-04-24 20:39 27.19124 33.76086 35934 ft 534 kts 72°
2026-04-24 20:40 27.20644 33.79877 35946 ft 533 kts 56°
2026-04-24 20:40 27.22823 33.83158 35933 ft 529 kts 43°
2026-04-24 20:40 27.25649 33.85823 35924 ft 520 kts 29°
2026-04-24 20:40 27.28663 33.87987 35945 ft 521 kts 28°
2026-04-24 20:41 27.34809 33.92362 35932 ft 525 kts 29°
2026-04-24 20:41 27.40921 33.96881 35917 ft 527 kts 30°
2026-04-24 20:42 27.47011 34.01470 35894 ft 526 kts 30°
2026-04-24 20:42 27.53080 34.06036 35883 ft 524 kts 30°
2026-04-24 20:43 27.59158 34.10602 35859 ft 522 kts 30°
2026-04-24 20:43 27.65148 34.15106 35845 ft 520 kts 30°
2026-04-24 20:44 27.71162 34.19636 35831 ft 518 kts 30°
2026-04-24 20:44 27.77156 34.24154 35821 ft 517 kts 31°
2026-04-24 20:45 27.83128 34.28668 35808 ft 516 kts 31°
2026-04-24 20:45 27.89097 34.33187 35804 ft 515 kts 31°
2026-04-24 20:46 27.95019 34.37663 35808 ft 515 kts 29°
2026-04-24 20:46 28.01384 34.41265 35809 ft 509 kts 17°
2026-04-24 20:47 28.08149 34.43463 35811 ft 504 kts
2026-04-24 20:47 28.15042 34.45044 35811 ft 505 kts
2026-04-24 20:48 28.21945 34.46639 35807 ft 507 kts
2026-04-24 20:48 28.28852 34.48299 35807 ft 508 kts
2026-04-24 20:49 28.34605 34.49696 35807 ft 508 kts
2026-04-24 20:49 28.41533 34.51378 35805 ft 508 kts
2026-04-24 20:50 28.49565 34.53326 35814 ft 508 kts
2026-04-24 20:50 28.55354 34.54760 35815 ft 508 kts
2026-04-24 20:51 28.62255 34.56539 35824 ft 508 kts
2026-04-24 20:51 28.69142 34.58322 35834 ft 507 kts
2026-04-24 20:52 28.75975 34.60081 35834 ft 507 kts
2026-04-24 20:52 28.82861 34.61851 35824 ft 507 kts
2026-04-24 20:53 28.89738 34.63623 35830 ft 507 kts
2026-04-24 20:53 28.96617 34.65399 35843 ft 507 kts
2026-04-24 20:54 29.03337 34.67904 35840 ft 512 kts 21°
2026-04-24 20:54 29.09574 34.71909 35850 ft 516 kts 32°
2026-04-24 20:55 29.15454 34.76625 35852 ft 516 kts 33°
2026-04-24 20:55 29.21327 34.81344 35849 ft 516 kts 33°
2026-04-24 20:56 29.27195 34.85982 35857 ft 516 kts 32°
2026-04-24 20:56 29.33119 34.90649 35857 ft 516 kts 33°
2026-04-24 20:57 29.39011 34.95367 35855 ft 517 kts 36°
2026-04-24 20:57 29.44325 35.00942 35847 ft 518 kts 48°
2026-04-24 20:58 29.48946 35.07296 35857 ft 518 kts 50°
2026-04-24 20:58 29.53556 35.13607 35850 ft 518 kts 49°
2026-04-24 20:59 29.58835 35.19168 35853 ft 515 kts 32°
2026-04-24 20:59 29.65225 35.22766 35864 ft 510 kts 15°
2026-04-24 21:00 29.72008 35.25159 35861 ft 510 kts 14°
2026-04-24 21:00 29.78809 35.27548 35859 ft 511 kts 14°
2026-04-24 21:01 29.85602 35.30024 35867 ft 513 kts 15°
2026-04-24 21:01 29.92410 35.32547 35865 ft 514 kts 15°
2026-04-24 21:02 29.99176 35.35053 35868 ft 514 kts 15°
2026-04-24 21:02 30.05995 35.37575 35857 ft 515 kts 15°
2026-04-24 21:03 30.12814 35.40101 35856 ft 514 kts 15°
2026-04-24 21:03 30.19629 35.42637 35861 ft 514 kts 17°
2026-04-24 21:04 30.26204 35.45940 35872 ft 516 kts 26°
2026-04-24 21:04 30.32548 35.49830 35883 ft 515 kts 27°
2026-04-24 21:05 30.38866 35.53716 35879 ft 515 kts 26°
2026-04-24 21:05 30.45227 35.57573 35893 ft 514 kts 26°
2026-04-24 21:06 30.51532 35.61377 35892 ft 514 kts 26°
2026-04-24 21:06 30.57878 35.65212 35899 ft 514 kts 26°
2026-04-24 21:07 30.64220 35.69055 35910 ft 514 kts 26°
2026-04-24 21:07 30.70576 35.72914 35910 ft 514 kts 26°
2026-04-24 21:08 30.76911 35.76767 35915 ft 515 kts 26°